When you browse on this site, cookies collect data to enhance your experience and personalize the content and advertising you see.
Visit our Privacy Policy to learn more. By continuing to use the site, you agree to this use of cookies and data.
  • In Deutschland
  • Länderverzeichnis
  • Für 7 Tage
  • Wassertemperatur
  • Wetterkarte
  • Widgets
  • user-avatar
    Anmelden

    Stündliche Wetter Altbach

    Heute, 28 Januar, Dienstag

    Zeit Temperatur Niederschläge Wind Luftdruck Luftfeuchtigkeit
    00:00 +6°C° 0.2 mm 5 m/S 726 mmHg 85%
    01:00 +5°C° 0.2 mm 6 m/S 725 mmHg 85%
    02:00 +5°C° 1 mm 6 m/S 725 mmHg 85%
    03:00 +5°C° 1 mm 5 m/S 724 mmHg 86%
    04:00 +5°C° 1 mm 5 m/S 724 mmHg 87%
    05:00 +5°C° 0.2 mm 5 m/S 724 mmHg 87%
    06:00 +5°C° 0.2 mm 5 m/S 723 mmHg 87%
    07:00 +5°C° 0.2 mm 5 m/S 723 mmHg 87%
    08:00 +5°C° 1 mm 5 m/S 722 mmHg 87%
    09:00 +4°C° 1 mm 6 m/S 722 mmHg 87%
    10:00 +4°C° 1 mm 7 m/S 722 mmHg 87%
    11:00 +4°C° 0.7 mm 8 m/S 722 mmHg 81%
    12:00 +2°C° 0.7 mm 9 m/S 723 mmHg 76%
    13:00 +2°C° 0.7 mm 10 m/S 723 mmHg 70%
    14:00 +2°C° 0.2 mm 9 m/S 724 mmHg 70%
    15:00 +1°C° 0.2 mm 9 m/S 724 mmHg 70%
    16:00 +1°C° 0.2 mm 8 m/S 725 mmHg 70%
    17:00 +2°C° 0.1 mm 7 m/S 726 mmHg 72%
    18:00 0°C° 0.1 mm 7 m/S 726 mmHg 75%
    19:00 +1°C° 0.1 mm 6 m/S 727 mmHg 78%
    20:00 -1°C° 0.2 mm 6 m/S 727 mmHg 82%
    21:00 -1°C° 0.2 mm 6 m/S 727 mmHg 87%
    22:00 -1°C° 0.2 mm 7 m/S 727 mmHg 92%
    23:00 -1°C° 0.3 mm 6 m/S 727 mmHg 90%

    Morgen, 29 Januar, Mittwoch

    Zeit Temperatur Niederschläge Wind Luftdruck Luftfeuchtigkeit
    00:00 -1°C° 0.3 mm 6 m/S 727 mmHg 89%
    01:00 -1°C° 0.3 mm 6 m/S 727 mmHg 87%
    02:00 -1°C° 0.2 mm 6 m/S 727 mmHg 89%
    03:00 -1°C° 0.2 mm 6 m/S 728 mmHg 91%
    04:00 -1°C° 0.2 mm 6 m/S 728 mmHg 93%
    05:00 -1°C° 0.2 mm 6 m/S 728 mmHg 92%
    06:00 0°C° 0.2 mm 5 m/S 729 mmHg 91%
    07:00 0°C° 0.2 mm 5 m/S 729 mmHg 89%
    08:00 0°C° 0.2 mm 5 m/S 730 mmHg 88%
    09:00 -1°C° 0.2 mm 6 m/S 730 mmHg 86%
    10:00 -1°C° 0.2 mm 6 m/S 731 mmHg 84%
    11:00 +1°C° 0.4 mm 6 m/S 731 mmHg 83%
    12:00 0°C° 0.4 mm 7 m/S 731 mmHg 83%
    13:00 0°C° 0.4 mm 7 m/S 732 mmHg 82%
    14:00 0°C° 0.4 mm 7 m/S 732 mmHg 81%
    15:00 0°C° 0.4 mm 7 m/S 732 mmHg 80%
    16:00 +1°C° 0.4 mm 6 m/S 732 mmHg 79%
    17:00 +1°C° 0.2 mm 6 m/S 733 mmHg 81%
    18:00 0°C° 0.2 mm 5 m/S 734 mmHg 84%
    19:00 0°C° 0.2 mm 4 m/S 734 mmHg 86%
    20:00 0°C° 0.1 mm 4 m/S 735 mmHg 88%
    21:00 0°C° 0.1 mm 4 m/S 736 mmHg 89%
    22:00 +1°C° 0.1 mm 3 m/S 736 mmHg 91%
    23:00 +1°C° 0 mm 3 m/S 736 mmHg 91%

    übermorgen, 30 Januar, Donnerstag

    Zeit Temperatur Niederschläge Wind Luftdruck Luftfeuchtigkeit
    00:00 +1°C° 0 mm 3 m/S 737 mmHg 91%
    01:00 0°C° 0 mm 3 m/S 737 mmHg 91%
    02:00 +1°C° 0 mm 2 m/S 737 mmHg 91%
    03:00 +1°C° 0 mm 2 m/S 737 mmHg 90%
    04:00 +1°C° 0 mm 2 m/S 737 mmHg 89%
    05:00 -1°C° 0 mm 2 m/S 736 mmHg 89%
    06:00 -1°C° 0 mm 2 m/S 736 mmHg 89%
    07:00 -1°C° 0 mm 2 m/S 736 mmHg 89%
    08:00 +1°C° 0 mm 2 m/S 736 mmHg 88%
    09:00 +2°C° 0 mm 2 m/S 735 mmHg 87%
    10:00 +3°C° 0 mm 2 m/S 735 mmHg 85%
    11:00 +4°C° 0 mm 2 m/S 734 mmHg 83%
    12:00 +5°C° 0 mm 2 m/S 734 mmHg 81%
    13:00 +6°C° 0 mm 2 m/S 733 mmHg 79%
    14:00 +6°C° 0 mm 2 m/S 733 mmHg 80%
    15:00 +5°C° 0 mm 2 m/S 732 mmHg 81%
    16:00 +5°C° 0 mm 2 m/S 732 mmHg 83%
    17:00 +5°C° 0 mm 2 m/S 732 mmHg 81%
    18:00 +5°C° 0 mm 2 m/S 732 mmHg 79%
    19:00 +5°C° 0 mm 2 m/S 732 mmHg 77%
    20:00 +4°C° 0.1 mm 3 m/S 731 mmHg 80%
    21:00 +5°C° 0.1 mm 3 m/S 731 mmHg 83%
    22:00 +5°C° 0.1 mm 3 m/S 731 mmHg 87%
    23:00 +6°C° 0.1 mm 4 m/S 731 mmHg 88%

    31 Januar, Freitag

    Zeit Temperatur Niederschläge Wind Luftdruck Luftfeuchtigkeit
    00:00 +6°C° 0.1 mm 4 m/S 731 mmHg 90%
    01:00 +7°C° 0.1 mm 5 m/S 731 mmHg 92%
    02:00 +7°C° 0.2 mm 5 m/S 731 mmHg 91%
    03:00 +8°C° 0.2 mm 5 m/S 731 mmHg 91%
    04:00 +8°C° 0.2 mm 4 m/S 731 mmHg 91%
    05:00 +8°C° 0 mm 4 m/S 731 mmHg 91%
    06:00 +8°C° 0 mm 4 m/S 731 mmHg 91%
    07:00 +8°C° 0 mm 4 m/S 731 mmHg 91%
    08:00 +10°C° 0 mm 4 m/S 732 mmHg 90%
    09:00 +9°C° 0 mm 5 m/S 732 mmHg 89%
    10:00 +9°C° 0 mm 5 m/S 732 mmHg 88%
    11:00 +10°C° 0 mm 5 m/S 732 mmHg 85%
    12:00 +12°C° 0 mm 5 m/S 732 mmHg 81%
    13:00 +11°C° 0 mm 6 m/S 732 mmHg 78%
    14:00 +12°C° 0 mm 5 m/S 732 mmHg 80%
    15:00 +12°C° 0 mm 4 m/S 732 mmHg 81%
    16:00 +12°C° 0 mm 4 m/S 732 mmHg 83%
    17:00 +11°C° 0 mm 3 m/S 732 mmHg 85%
    18:00 +11°C° 0 mm 3 m/S 732 mmHg 87%
    19:00 +10°C° 0 mm 3 m/S 732 mmHg 89%
    20:00 +10°C° 0.1 mm 3 m/S 732 mmHg 89%
    21:00 +10°C° 0.1 mm 4 m/S 732 mmHg 89%
    22:00 +10°C° 0.1 mm 4 m/S 732 mmHg 89%
    23:00 +10°C° 0 mm 4 m/S 732 mmHg 89%

    1 Februar, Samstag

    Zeit Temperatur Niederschläge Wind Luftdruck Luftfeuchtigkeit
    00:00 +10°C° 0 mm 4 m/S 732 mmHg 88%
    01:00 +10°C° 0 mm 4 m/S 732 mmHg 88%
    02:00 +10°C° 0.1 mm 4 m/S 731 mmHg 88%
    03:00 +10°C° 0.1 mm 4 m/S 731 mmHg 87%
    04:00 +10°C° 0.1 mm 4 m/S 731 mmHg 86%
    05:00 +10°C° 0.5 mm 4 m/S 731 mmHg 87%
    06:00 +10°C° 0.5 mm 4 m/S 731 mmHg 88%
    07:00 +10°C° 0.5 mm 4 m/S 731 mmHg 88%
    08:00 +9°C° 0.4 mm 5 m/S 731 mmHg 88%
    09:00 +9°C° 0.4 mm 5 m/S 731 mmHg 88%
    10:00 +10°C° 0.4 mm 5 m/S 731 mmHg 89%
    11:00 +10°C° 0.2 mm 6 m/S 731 mmHg 85%
    12:00 +11°C° 0.2 mm 6 m/S 732 mmHg 81%
    13:00 +11°C° 0.2 mm 6 m/S 732 mmHg 78%
    14:00 +11°C° 0.1 mm 6 m/S 732 mmHg 78%
    15:00 +11°C° 0.1 mm 6 m/S 732 mmHg 78%
    16:00 +11°C° 0.1 mm 6 m/S 733 mmHg 78%
    17:00 +10°C° 0 mm 5 m/S 733 mmHg 80%
    18:00 +9°C° 0 mm 5 m/S 734 mmHg 82%
    19:00 +10°C° 0 mm 4 m/S 735 mmHg 84%
    20:00 +10°C° 0.1 mm 4 m/S 735 mmHg 85%
    21:00 +10°C° 0.1 mm 4 m/S 735 mmHg 86%
    22:00 +8°C° 0.1 mm 4 m/S 736 mmHg 87%
    23:00 +8°C° 0 mm 4 m/S 736 mmHg 87%

    2 Februar, Sonntag

    Zeit Temperatur Niederschläge Wind Luftdruck Luftfeuchtigkeit
    00:00 +8°C° 0 mm 4 m/S 736 mmHg 87%
    01:00 +7°C° 0 mm 4 m/S 736 mmHg 88%
    02:00 +8°C° 0 mm 4 m/S 735 mmHg 87%
    03:00 +8°C° 0 mm 4 m/S 735 mmHg 86%
    04:00 +8°C° 0 mm 4 m/S 734 mmHg 85%
    05:00 +8°C° 0 mm 5 m/S 734 mmHg 83%
    06:00 +8°C° 0 mm 5 m/S 733 mmHg 82%
    07:00 +9°C° 0 mm 6 m/S 733 mmHg 80%
    08:00 +10°C° 0 mm 6 m/S 733 mmHg 79%
    09:00 +10°C° 0 mm 6 m/S 732 mmHg 78%
    10:00 +11°C° 0 mm 6 m/S 732 mmHg 77%
    11:00 +11°C° 0.2 mm 7 m/S 732 mmHg 78%
    12:00 +11°C° 0.2 mm 7 m/S 731 mmHg 79%
    13:00 +11°C° 0.2 mm 8 m/S 731 mmHg 81%
    14:00 +11°C° 0.2 mm 8 m/S 731 mmHg 81%
    15:00 +12°C° 0.2 mm 8 m/S 731 mmHg 81%
    16:00 +12°C° 0.2 mm 7 m/S 731 mmHg 82%
    17:00 +12°C° 0.3 mm 7 m/S 731 mmHg 83%
    18:00 +11°C° 0.3 mm 7 m/S 731 mmHg 83%
    19:00 +11°C° 0.3 mm 7 m/S 732 mmHg 84%
    20:00 +11°C° 0.6 mm 7 m/S 732 mmHg 85%
    21:00 +11°C° 0.6 mm 8 m/S 732 mmHg 86%
    22:00 +12°C° 0.6 mm 8 m/S 732 mmHg 86%
    23:00 +11°C° 0.4 mm 7 m/S 733 mmHg 86%
    Mehr zeigen